[[{"header":{"parameterUnit":"m.s-1","parameterCategory":1,"la1":30.2991,"la2":30.254,"lo1":-89.0895,"lo2":-89.0444,"dy":0.0017,"dx":0.0017,"nx":28,"ny":28,"refTime":"2023-09-22T03:00:00:Z","depth":0,"parameterNumber":2,"parameterNumberName":"U-component_of_WINDS"},"data":[0,0,0,0,0,0,0,0,0,0,0,0,0,0,0,0,0,0,0,0,0,0,0,0,0,0,0,0,0,0,0,0,0,0,0,0,0,0,0,0,0,0,0,0,0,0,0,0,0,0,0,0,0,0,0,0,0,0,-2.4913,-2.4912,0,-2.4837,-2.4836,-2.4835,-2.4742,-2.474,-2.4739,-2.4737,-2.466,-2.466,-2.4659,0,0,0,0,0,0,0,0,0,0,0,0,0,-2.4979,-2.4978,-2.4913,-2.4912,-2.4911,-2.4837,-2.4836,-2.4835,-2.4742,-2.474,-2.4738,-2.4737,-2.466,-2.466,-2.4659,0,0,0,0,0,0,0,0,0,0,0,0,0,-2.4931,-2.4978,-2.4913,-2.4856,-2.485,-2.4838,-2.4836,-2.4835,-2.4742,-2.474,-2.4738,-2.4736,-2.4661,-2.466,-2.4659,-2.4697,0,0,-2.4656,-2.4655,0,0,0,0,0,0,0,0,-2.4934,-2.4929,-2.4865,-2.486,-2.4853,-2.4797,-2.4831,-2.4789,-2.4743,-2.4783,-2.4737,-2.4735,-2.4707,-2.4702,-2.4693,-2.4693,-2.469,-2.4656,-2.4655,-2.4655,-2.4654,0,0,0,0,0,0,0,-2.4938,-2.4932,-2.4883,-2.4864,-2.4857,-2.4834,-2.4825,-2.4823,-2.4759,-2.4779,-2.4773,-2.4765,-2.4704,-2.4694,-2.4691,-2.4689,-2.4656,-2.4655,-2.4654,-2.4654,-2.4719,-2.4722,0,0,0,0,0,0,-2.4949,-2.4935,-2.4885,-2.4881,-2.4889,-2.4835,-2.4825,-2.4817,-2.4758,-2.4747,-2.4767,-2.4761,-2.4697,-2.4692,-2.4688,-2.473,-2.4655,-2.4654,-2.4653,-2.4717,-2.472,-2.4722,0,0,0,0,0,0,-2.4951,-2.4946,-2.4889,-2.4906,-2.4897,-2.4836,-2.4828,-2.4817,-2.4807,-2.4749,-2.4737,-2.4769,-2.4695,-2.4689,-2.4696,-2.4726,-2.4653,-2.4652,-2.4714,-2.4718,-2.4721,-2.4815,0,0,0,0,0,0,-2.4953,-2.4947,-2.496,-2.4907,-2.4896,-2.4898,-2.483,-2.4817,-2.4806,-2.4797,-2.4748,-2.4737,-2.4693,-2.4698,-2.4695,-2.4724,-2.4651,-2.4711,-2.4716,-2.472,-2.4809,-2.4822,-2.4832,0,0,0,0,0,-2.4956,-2.499,-2.4962,-2.4956,-2.4912,-2.49,-2.4894,-2.4842,-2.4808,-2.4822,-2.4785,-2.4739,-2.4723,-2.4699,-2.4695,-2.4724,-2.4709,-2.4715,-2.472,-2.4804,-2.4819,-2.4832,0,0,0,0,0,0,-2.5048,-2.4982,-2.495,-2.4967,-2.494,-2.4884,-2.4899,-2.4859,-2.4841,-2.4834,-2.477,-2.476,-2.4775,-2.475,-2.4724,-2.4759,-2.471,-2.4714,-2.4775,-2.4789,-2.48,-2.4807,-2.4651,0,0,0,0,0,-2.507,-2.5066,-2.5008,-2.5029,-2.5017,-2.4961,-2.4953,-2.4916,-2.4885,-2.4873,-2.4836,-2.4809,-2.4798,-2.4792,-2.4778,-2.4805,-2.4794,-2.4823,-2.4834,-2.4844,-2.4849,-2.4864,-2.4877,-2.474,-2.474,-2.474,0,0,-2.5116,-2.5079,-2.508,-2.5046,-2.5021,-2.5018,-2.4952,-2.4951,-2.4949,-2.4873,-2.4878,-2.485,-2.4815,-2.4833,-2.4839,-2.4813,-2.4885,-2.4851,-2.4859,-2.4859,-2.4871,-2.4884,-2.4896,-2.4743,-2.4743,-2.4742,0,0,-2.5199,-2.517,-2.5185,-2.5161,-2.5124,-2.5087,-2.5091,-2.5041,-2.502,-2.5024,-2.4967,-2.4964,-2.4946,-2.4924,-2.491,-2.4987,-2.4945,-2.4984,-2.5045,-2.506,-2.5071,-2.508,-2.511,-2.5121,-2.4989,-2.499,-2.499,0,-2.5261,-2.5255,-2.5198,-2.5202,-2.5189,-2.5121,-2.5137,-2.5116,-2.5076,-2.507,-2.5041,-2.5018,-2.4989,-2.5002,-2.5021,-2.5011,-2.5015,-2.499,-2.5074,-2.5083,-2.509,-2.5118,-2.5129,-2.4995,-2.4994,-2.4994,-2.4993,0,-2.5334,-2.533,-2.5347,-2.5311,-2.53,-2.531,-2.5256,-2.5252,-2.5216,-2.5182,-2.5188,-2.5152,-2.5131,-2.513,-2.5094,-2.5139,-2.5124,-2.5085,-2.5034,-2.511,-2.5135,-2.5145,-2.5002,-2.5,-2.4999,-2.4998,0,0,-2.5472,-2.5406,-2.5413,-2.5397,-2.5351,-2.5348,-2.5355,-2.5335,-2.5334,-2.5309,-2.5314,-2.5301,-2.5266,-2.5251,-2.5212,-2.5225,-2.5291,-2.5185,-2.5183,-2.5208,-2.5341,-2.5372,-2.5385,-2.5263,-2.5264,-2.5266,-2.5344,0,-2.5548,-2.5557,-2.5507,-2.5529,-2.5527,-2.5462,-2.5469,-2.5442,-2.5411,-2.5405,-2.537,-2.5363,-2.5316,-2.5307,-2.5316,-2.5281,-2.5317,-2.5274,-2.5269,-2.5269,-2.5282,-2.5397,-2.5429,-2.5505,-2.5353,-2.5355,-2.5356,0,-2.5638,-2.5619,-2.5642,-2.5597,-2.5593,-2.56,-2.5579,-2.5573,-2.5542,-2.5519,-2.5503,-2.5459,-2.5464,-2.5415,-2.5422,-2.5394,-2.5389,-2.5372,-2.5373,-2.5372,-2.5319,-2.5401,-2.5528,-2.554,-2.537,-2.5369,-2.5368,0,-2.574,-2.5719,-2.5731,-2.5718,-2.5666,-2.5673,-2.5651,-2.5618,-2.5609,-2.559,-2.5585,-2.5567,-2.5558,-2.5545,-2.5498,-2.5466,-2.5512,-2.5458,-2.5494,-2.5496,-2.5508,-2.5508,-2.5638,-2.5502,-2.5502,-2.5501,-2.5501,0,-2.5831,-2.5848,-2.5776,-2.5783,-2.5801,-2.5743,-2.5763,-2.5735,-2.5706,-2.5708,-2.565,-2.5653,-2.5589,-2.5586,-2.5548,-2.5562,-2.5557,-2.554,-2.553,-2.5546,-2.5549,-2.5543,-2.5538,-2.5504,-2.5504,-2.5503,-2.5503,0,-2.5948,-2.59,-2.5909,-2.5858,-2.5846,-2.5862,-2.5819,-2.5824,-2.579,-2.5793,-2.579,-2.5737,-2.573,-2.5681,-2.5662,-2.5637,-2.5665,-2.5644,-2.5676,-2.567,-2.571,-2.5708,-2.5842,-2.5858,-2.571,-2.5712,-2.5713,0,-2.601,-2.6021,-2.5973,-2.597,-2.5951,-2.5947,-2.5938,-2.5882,-2.5876,-2.5843,-2.5853,-2.5841,-2.5829,-2.582,-2.5781,-2.5767,-2.5746,-2.5794,-2.5744,-2.576,-2.575,-2.575,-2.5752,-2.5806,-2.5807,-2.5809,-2.581,0,-2.6126,-2.6102,-2.6092,-2.6075,-2.6066,-2.605,-2.6029,-2.603,-2.5969,-2.5965,-2.5957,-2.5948,-2.593,-2.5919,-2.5899,-2.5877,-2.5835,-2.5826,-2.5834,-2.5852,-2.5871,-2.5864,-2.5708,-2.5824,-2.5822,-2.5821,-2.5821,-2.582,-2.6218,-2.6227,-2.6195,-2.6186,-2.6165,-2.6148,-2.6151,-2.6118,-2.611,-2.6091,-2.6059,-2.6056,-2.6027,-2.5995,-2.5977,-2.5975,-2.595,-2.5961,-2.5964,-2.5968,-2.5978,-2.587,-2.5971,-2.597,-2.597,-2.597,-2.5969,0,-2.6334,-2.631,-2.6302,-2.6277,-2.6271,-2.623,-2.6206,-2.6204,-2.6202,-2.6178,-2.6168,-2.616,-2.615,-2.611,-2.6096,-2.6103,-2.6083,-2.6101,-2.6101,-2.6098,-2.6,-2.5995,-2.6118,-2.6118,-2.6118,-2.6118,-2.6118,-2.6118,-2.6393,-2.6406,-2.6379,-2.6381,-2.6357,-2.6354,-2.6344,-2.6329,-2.631,-2.6304,-2.6296,-2.6269,-2.6239,-2.6223,-2.6213,-2.6202,-2.6201,-2.6226,-2.6209,-2.6118,-2.6104,-2.6091,-2.6086,-2.6226,-2.6226,-2.6306,-2.6307,-2.6308]},{"header":{"parameterUnit":"m.s-1","parameterCategory":1,"la1":30.2991,"la2":30.254,"lo1":-89.0895,"lo2":-89.0444,"dy":0.0017,"dx":0.0017,"nx":28,"ny":28,"refTime":"2023-09-22T03:00:00:Z","depth":0,"parameterNumber":3,"parameterNumberName":"V-component_of_WINDS"},"data":[0,0,0,0,0,0,0,0,0,0,0,0,0,0,0,0,0,0,0,0,0,0,0,0,0,0,0,0,0,0,0,0,0,0,0,0,0,0,0,0,0,0,0,0,0,0,0,0,0,0,0,0,0,0,0,0,0,0,-0.6561,-0.6561,0,-0.6563,-0.6563,-0.6563,-0.6557,-0.6557,-0.6557,-0.6557,-0.6559,-0.656,-0.656,0,0,0,0,0,0,0,0,0,0,0,0,0,-0.6553,-0.6553,-0.6561,-0.6561,-0.6561,-0.6563,-0.6563,-0.6563,-0.6557,-0.6557,-0.6557,-0.6557,-0.6559,-0.656,-0.656,0,0,0,0,0,0,0,0,0,0,0,0,0,-0.6556,-0.6553,-0.6561,-0.6558,-0.6558,-0.6563,-0.6563,-0.6563,-0.6557,-0.6557,-0.6557,-0.6556,-0.6559,-0.656,-0.656,-0.6568,0,0,-0.6561,-0.6561,0,0,0,0,0,0,0,0,-0.6556,-0.6556,-0.6558,-0.6558,-0.6558,-0.656,-0.6561,-0.6565,-0.6557,-0.6557,-0.6557,-0.6556,-0.656,-0.656,-0.6561,-0.6568,-0.6568,-0.6561,-0.6561,-0.6562,-0.6562,0,0,0,0,0,0,0,-0.6556,-0.6556,-0.6562,-0.6558,-0.6558,-0.6557,-0.6557,-0.6562,-0.656,-0.6557,-0.6557,-0.6557,-0.656,-0.6561,-0.6561,-0.6568,-0.6561,-0.6562,-0.6562,-0.6562,-0.6585,-0.6585,0,0,0,0,0,0,-0.6555,-0.6556,-0.6562,-0.6562,-0.6556,-0.6558,-0.6558,-0.6559,-0.656,-0.656,-0.6558,-0.6557,-0.656,-0.6561,-0.6561,-0.6572,-0.6562,-0.6562,-0.6562,-0.6584,-0.6585,-0.6585,0,0,0,0,0,0,-0.6555,-0.6556,-0.6561,-0.6559,-0.6559,-0.6558,-0.656,-0.656,-0.6561,-0.656,-0.656,-0.6559,-0.656,-0.6561,-0.6567,-0.6572,-0.6562,-0.6562,-0.6584,-0.6584,-0.6585,-0.6593,0,0,0,0,0,0,-0.6555,-0.6556,-0.6558,-0.6559,-0.656,-0.6566,-0.656,-0.656,-0.6561,-0.6561,-0.6562,-0.6561,-0.656,-0.6566,-0.6567,-0.6573,-0.6563,-0.6583,-0.6584,-0.6585,-0.6593,-0.6594,-0.6596,0,0,0,0,0,-0.6555,-0.656,-0.6559,-0.6559,-0.6562,-0.6567,-0.6567,-0.6565,-0.6562,-0.6565,-0.6565,-0.6561,-0.6571,-0.6567,-0.6568,-0.6574,-0.6583,-0.6584,-0.6585,-0.6592,-0.6594,-0.6596,0,0,0,0,0,0,-0.656,-0.656,-0.6558,-0.6564,-0.6565,-0.6566,-0.6569,-0.6567,-0.6569,-0.6569,-0.6566,-0.6567,-0.6574,-0.6574,-0.6569,-0.6583,-0.6577,-0.6578,-0.6582,-0.6584,-0.6585,-0.6585,-0.6563,0,0,0,0,0,-0.6562,-0.6565,-0.6565,-0.657,-0.6571,-0.657,-0.6572,-0.657,-0.6572,-0.6573,-0.6573,-0.6575,-0.6579,-0.6581,-0.6584,-0.6593,-0.6594,-0.6597,-0.6599,-0.66,-0.6601,-0.6608,-0.661,-0.6588,-0.6588,-0.6588,0,0,-0.6566,-0.6566,-0.6568,-0.6571,-0.6572,-0.6577,-0.6571,-0.6575,-0.6578,-0.6573,-0.6579,-0.658,-0.6582,-0.659,-0.6593,-0.6591,-0.6607,-0.6601,-0.6602,-0.6602,-0.6609,-0.6611,-0.6613,-0.6588,-0.6588,-0.6588,0,0,-0.6575,-0.6575,-0.658,-0.6582,-0.6584,-0.6583,-0.6585,-0.6586,-0.6586,-0.6592,-0.6589,-0.6594,-0.66,-0.6602,-0.6604,-0.6617,-0.6614,-0.6618,-0.6625,-0.6632,-0.6634,-0.6635,-0.6642,-0.6644,-0.6619,-0.6619,-0.6619,0,-0.6579,-0.6585,-0.6583,-0.6588,-0.659,-0.6587,-0.6593,-0.6594,-0.6597,-0.6599,-0.6596,-0.6605,-0.6606,-0.6615,-0.6619,-0.662,-0.6622,-0.6618,-0.6634,-0.6635,-0.6637,-0.6643,-0.6645,-0.6619,-0.6619,-0.6619,-0.6619,0,-0.6591,-0.6595,-0.6599,-0.6603,-0.6606,-0.6611,-0.6611,-0.6614,-0.6613,-0.6613,-0.6621,-0.6623,-0.6627,-0.6629,-0.6627,-0.6639,-0.6637,-0.6634,-0.6628,-0.6639,-0.6645,-0.6647,-0.662,-0.662,-0.662,-0.662,0,0,-0.6602,-0.6607,-0.6608,-0.6611,-0.6614,-0.6617,-0.6623,-0.6628,-0.6632,-0.6634,-0.664,-0.6647,-0.6644,-0.6646,-0.6645,-0.6651,-0.6663,-0.6647,-0.6647,-0.6651,-0.6678,-0.6682,-0.6685,-0.6662,-0.6662,-0.6662,-0.6679,0,-0.6613,-0.6623,-0.6622,-0.6633,-0.6638,-0.6635,-0.6641,-0.6644,-0.6645,-0.665,-0.6651,-0.6657,-0.6652,-0.6654,-0.6659,-0.6661,-0.6669,-0.6659,-0.6669,-0.6669,-0.6669,-0.6687,-0.669,-0.6706,-0.6681,-0.6681,-0.6681,0,-0.6625,-0.663,-0.664,-0.6645,-0.6647,-0.6652,-0.6658,-0.6662,-0.6666,-0.6667,-0.667,-0.6669,-0.6677,-0.6671,-0.6682,-0.6676,-0.668,-0.6681,-0.6682,-0.6683,-0.6676,-0.6691,-0.671,-0.6713,-0.6685,-0.6684,-0.6684,0,-0.6634,-0.6642,-0.6651,-0.6653,-0.6658,-0.6662,-0.6664,-0.6668,-0.6672,-0.6677,-0.668,-0.6685,-0.6689,-0.6694,-0.6695,-0.669,-0.6707,-0.67,-0.6709,-0.6709,-0.6713,-0.6713,-0.6735,-0.6714,-0.6714,-0.6713,-0.6713,0,-0.6646,-0.6653,-0.6655,-0.666,-0.6669,-0.6669,-0.6678,-0.668,-0.6684,-0.669,-0.6688,-0.6694,-0.6695,-0.6701,-0.6702,-0.6713,-0.6714,-0.6716,-0.6716,-0.6716,-0.6717,-0.672,-0.6719,-0.6714,-0.6714,-0.6714,-0.6714,0,-0.6657,-0.6658,-0.6668,-0.6672,-0.6674,-0.668,-0.6685,-0.669,-0.6692,-0.67,-0.6702,-0.6705,-0.6713,-0.6714,-0.6723,-0.6724,-0.6738,-0.6736,-0.6736,-0.6737,-0.6746,-0.6746,-0.6772,-0.6776,-0.675,-0.6751,-0.6751,0,-0.6665,-0.667,-0.6676,-0.6681,-0.6683,-0.669,-0.6695,-0.6696,-0.67,-0.6707,-0.6712,-0.672,-0.6727,-0.674,-0.6744,-0.6751,-0.6751,-0.676,-0.6752,-0.6753,-0.6753,-0.6753,-0.6755,-0.6761,-0.6762,-0.6762,-0.6762,0,-0.6679,-0.668,-0.6686,-0.6693,-0.6699,-0.6704,-0.671,-0.6714,-0.6716,-0.6721,-0.673,-0.6735,-0.6746,-0.6755,-0.6763,-0.6766,-0.6765,-0.6764,-0.6767,-0.6768,-0.6769,-0.6771,-0.6742,-0.6764,-0.6764,-0.6763,-0.6763,-0.6763,-0.6689,-0.6695,-0.6701,-0.6709,-0.6713,-0.6719,-0.6725,-0.6729,-0.6736,-0.6745,-0.6745,-0.6755,-0.6762,-0.6773,-0.6777,-0.6786,-0.6783,-0.6786,-0.6787,-0.6789,-0.679,-0.6767,-0.6787,-0.6787,-0.6787,-0.6787,-0.6787,0,-0.6704,-0.6708,-0.6716,-0.6724,-0.6731,-0.673,-0.6736,-0.6742,-0.6751,-0.6757,-0.6765,-0.6776,-0.6785,-0.679,-0.68,-0.6806,-0.6806,-0.6808,-0.6808,-0.681,-0.6791,-0.6789,-0.6808,-0.6808,-0.6808,-0.6808,-0.6808,-0.6808,-0.6713,-0.6723,-0.6726,-0.674,-0.6744,-0.6754,-0.6759,-0.6765,-0.677,-0.6783,-0.6791,-0.6794,-0.68,-0.6811,-0.682,-0.6821,-0.6826,-0.6829,-0.683,-0.6813,-0.6811,-0.6809,-0.6806,-0.6829,-0.6829,-0.6848,-0.6848,-0.6849]}]]